East Wenatchee, WA

6:09 PM PST on January 16, 2017 (GMT -0800)
Pangborn Memorial

Weather History for KEAT - July, 2013

Change the Weather History Date:

Monday, July 29, 2013

  Actual Average Record
Temperature  
Mean Temperature 64 °F 69 °F  
Max Temperature 84 °F 85 °F 102 °F (1982)
Min Temperature 44 °F 53 °F 44 °F (2013)
Degree Days  
Heating Degree Days 1 1  
Month to date heating degree days 12 52  
Since 1 June heating degree days 205 239  
Since 1 July heating degree days 12 52  
Cooling Degree Days 0 5  
Month to date cooling degree days 143 96  
Year to date cooling degree days 166 120  
Since 1 June cooling degree days 162 115  
Growing Degree Days 26 (Base 50)    
Moisture  
Dew Point 45 °F    
Average Humidity 37    
Maximum Humidity 58    
Minimum Humidity 16    
Precipitation  
Precipitation 0.00 in 0.01 in 0.30 in (1997)
Month to date precipitation T 0.55  
Year to date precipitation 7.75 9.93  
Snow  
Snow 0.00 in 0.00 in - ()
Month to date snowfall 0.0 0.0  
Since 1 June snowfall 0.0 0.0  
Since 1 July snowfall 0.0 0.0  
Snow Depth 0.00 in    
Sea Level Pressure  
Sea Level Pressure 29.85 in    
Wind  
Wind Speed 10 mph (NW)    
Max Wind Speed 15 mph    
Max Gust Speed 20 mph    
Visibility 9 miles    
Events      
T = Trace of Precipitation, MM = Missing Value Source: NWS Daily Summary

Daily Weather History Graph

Daily Weather History Graph

Search for Another Location

Airport or City:

Trip Planner

Search our weather history database for the weather conditions in past years. The results will help you decide how hot, cold, wet, or windy it might be!

Date:

Astronomy

Jul. 29, 2013 Rise Set
Actual Time 5:35 AM PDT 8:38 PM PDT
Civil Twilight 4:59 AM PDT 9:14 PM PDT
Nautical Twilight 4:12 AM PDT 10:00 PM PDT
Astronomical Twilight 3:14 AM PDT 10:57 PM PDT
Moon No Moon Rise 1:59 PM PDT (7/29)
Length of Visible Light 16h 14m
Length of Day
15h 02m
Waning Gibbous, 50% of the Moon is Illuminated
Jul 29
Waning Gibbous
Aug 6
New
Aug 14
First Quarter
Aug 20
Full
Aug 28
Last Quarter

Hourly Weather History & Observations

Time (PDT) Temp. Dew Point Humidity Pressure Visibility Wind Dir Wind Speed Gust Speed Precip Events Conditions
12:55 AM 69.1 °F 48.0 °F 47% 29.83 in 10.0 mi NNW 13.8 mph - N/A   Partly Cloudy
1:55 AM 66.9 °F 48.0 °F 51% 29.84 in 10.0 mi NNW 10.4 mph - N/A   Clear
2:55 AM 66.0 °F 48.9 °F 54% 29.85 in 10.0 mi NNW 13.8 mph - N/A   Clear
3:55 AM 64.9 °F 48.9 °F 56% 29.85 in 10.0 mi NNW 15.0 mph - N/A   Clear
4:55 AM 64.0 °F 48.0 °F 56% 29.86 in 10.0 mi NNW 11.5 mph - N/A   Clear
5:55 AM 64.0 °F 48.0 °F 56% 29.87 in 10.0 mi NNW 11.5 mph - N/A   Clear
6:55 AM 64.0 °F 48.9 °F 58% 29.88 in 10.0 mi NNW 11.5 mph 19.6 mph N/A   Clear
7:55 AM 66.0 °F 48.9 °F 54% 29.89 in 10.0 mi NNW 11.5 mph - N/A   Clear
8:55 AM 69.1 °F 48.9 °F 49% 29.89 in 10.0 mi NW 11.5 mph - N/A   Clear
9:55 AM 71.1 °F 48.9 °F 45% 29.88 in 10.0 mi West 10.4 mph - N/A   Clear
10:55 AM 75.0 °F 48.9 °F 40% 29.87 in 10.0 mi West 8.1 mph - N/A   Clear
11:55 AM 79.0 °F 42.1 °F 27% 29.86 in 10.0 mi West 6.9 mph - N/A   Clear
12:55 PM 82.0 °F 41.0 °F 23% 29.84 in 10.0 mi WNW 6.9 mph - N/A   Clear
1:55 PM 84.9 °F 41.0 °F 21% 29.83 in 10.0 mi West 6.9 mph - N/A   Clear
2:55 PM 86.0 °F 37.9 °F 18% 29.82 in 10.0 mi NW 3.5 mph - N/A   Clear
3:55 PM 87.1 °F 37.0 °F 17% 29.81 in 10.0 mi Variable 5.8 mph - N/A   Clear
4:55 PM 88.0 °F 37.0 °F 16% 29.80 in 10.0 mi South 3.5 mph - N/A   Clear
5:55 PM 86.0 °F 42.1 °F 21% 29.80 in 6.0 mi ESE 6.9 mph - N/A   Haze
6:55 PM 82.9 °F 46.9 °F 28% 29.80 in 3.0 mi ESE 6.9 mph - N/A   Haze
7:55 PM 79.0 °F 44.1 °F 29% 29.81 in 5.0 mi ESE 6.9 mph - N/A   Haze
8:15 PM 77.0 °F 44.6 °F 32% 29.84 in 4.0 mi East 9.2 mph - N/A   Haze
8:50 PM 77.0 °F 44.6 °F 32% 29.85 in 5.0 mi East 5.8 mph - N/A   Haze
8:55 PM 77.0 °F 44.1 °F 31% 29.83 in 5.0 mi East 5.8 mph - N/A   Haze
9:55 PM 79.0 °F 41.0 °F 26% 29.85 in 5.0 mi WNW 4.6 mph - N/A   Haze
10:55 PM 77.0 °F 46.9 °F 34% 29.87 in 10.0 mi NNW 10.4 mph - N/A   Clear
11:55 PM 77.0 °F 45.0 °F 32% 29.89 in 10.0 mi NW 9.2 mph - N/A   Clear